Location: Bagnara
(41.0500°N, 14.7833°E)
Time: 07:42:33
(UTC+00:00)

Meteor 2-3 Rocket - Pass Details

Date: 27 October 2021
Orbit: 842 x 885 km, 81.2° (Epoch: 30 November)

Event Time Altitude Azimuth Distance (km) Brightness Sun altitude
Rises 18:32:01 0° 358° (N) 3,422 7.0 -28.7°
Reaches altitude 10° 18:34:39 10° 7° (N) 2,488 6.1 -29.2°
Enters shadow 18:35:07 12° 9° (N) 2,330 6.0 -29.2°
